#timestamp,LO_Frequency,Hit,StdDev 
1647111615.3,286047004.7,N
1647111635.2,286047002.2,N
1647111655.0,286047001.4,N
1647111655.9,286047001.4,N
1647111675.8,286047005.1,N
1647111695.6,286047004.8,N
1647111715.4,286047003.6,N
1647111735.3,286047005.2,N
1647111755.1,286047004.1,N
1647111775.9,286047000.3,N
1647111795.7,286047002.9,N
1647111815.5,286047006.2,N
1647111835.4,286047006.1,N
1647111855.2,286047014.0,Y
1647111875.0,286047008.2,P
1647111875.9,286047008.2,N
1647111895.8,286047007.4,N
1647111915.6,286047008.6,Y
1647111935.5,286047001.8,P
1647111955.3,286047003.7,N
1647111975.1,286047007.4,P
1647111995.9,286047003.5,N
1647112015.7,286047000.9,N
1647112035.5,286046998.7,N
1647112055.4,286046999.6,N
1647112075.2,286046994.2,N
1647112095.1,286046992.7,N
1647112096.0,286046992.7,N
1647112115.8,286046994.4,N
1647112135.6,286046996.3,N
1647112155.5,286046993.9,N
1647112175.3,286046994.0,N
1647112195.1,286046992.2,N
1647112215.9,286046994.8,N
1647112235.7,286046995.0,N
1647112255.6,286046997.7,N
1647112275.4,286046998.4,N
1647112295.2,286046995.0,N
1647112315.1,286047002.5,N
1647112316.0,286047002.5,N
1647112335.8,286047001.5,N
1647112355.7,286047004.3,N
1647112375.5,286047002.3,N
1647112395.3,286047002.5,N
1647112415.2,286047007.2,N
1647112435.0,286047010.8,N
1647112435.9,286047010.8,N
1647112455.8,286047013.1,N
1647112475.6,286047013.6,N
1647112495.4,286047012.7,N
1647112515.3,286047009.4,N
1647112535.1,286047013.2,N
1647112555.8,286047015.2,N
1647112575.7,286047014.3,N
1647112595.5,286047019.4,N
1647112615.4,286047015.9,N
1647112635.2,286047013.5,N
1647112655.0,286047010.9,N
1647112655.9,286047010.9,N
1647112675.8,286047012.0,N
1647112695.6,286047012.9,N
1647112715.5,286047020.3,N
1647112735.3,286047019.7,N
1647112755.1,286047019.4,N
1647112775.9,286047017.3,N
1647112795.7,286047020.1,N
1647112815.5,286047019.0,N
1647112835.4,286047023.1,Y
1647112855.2,286047009.8,P
1647112875.1,286047013.5,P
1647112876.0,286047013.5,P
1647112895.8,286047011.2,Y
1647112915.6,286047000.2,P
1647112935.5,286047001.2,N
1647112955.3,286047000.1,N
1647112975.2,286047000.6,N
1647113025.9,286047004.6,E
1647113035.8,286047009.1,N
1647113055.7,286047005.1,P
1647113075.5,286047009.7,P
1647113095.4,286047010.7,Y
1647113115.2,286047002.3,P
1647113135.0,286047001.5,N
1647113135.9,286047001.5,N
1647113155.8,286047002.9,N
1647113175.6,286047004.6,N
1647113195.5,286047008.3,Y
1647113215.3,286047003.4,P
1647113235.1,286047007.1,P
1647113255.9,286047005.3,P
1647113275.7,286047003.3,N
1647113295.5,286046999.8,N
1647113315.4,286047001.3,N
1647113335.2,286047002.0,N
1647113355.1,286047003.4,N
1647113356.0,286047003.4,N
1647113375.8,286047007.0,Y
1647113395.6,286047003.1,P
1647113415.5,286047004.8,P
1647113435.3,286047007.2,P
1647113455.1,286047014.5,Y
1647113475.9,286047008.3,P
1647113495.7,286047008.3,P
1647113515.6,286047012.9,P
1647113535.4,286047014.7,Y
1647113555.2,286047007.5,P
1647113575.1,286047004.6,P
1647113576.0,286047004.6,N
1647113595.8,286047006.0,Y
1647113615.7,286046997.9,P
1647113635.5,286046997.7,N
1647113655.3,286046997.1,N
1647113675.2,286047001.3,N
1647113695.0,286046999.7,N
1647113695.9,286046999.7,N
1647113715.8,286047004.0,N
1647113735.6,286047003.7,N
1647113755.4,286046998.6,N
1647113775.3,286046999.1,N
1647113795.1,286047011.9,Y
1647113815.8,286046997.6,P
1647113835.7,286046997.6,N
1647113855.5,286046999.1,N
1647113875.4,286046993.6,Y
1647113895.2,286046993.4,P
1647113915.0,286046996.8,N
1647113915.9,286046996.8,N
1647113935.8,286047002.7,N
1647113955.6,286046999.8,N
1647113975.4,286046996.7,N
1647113995.3,286046996.7,N
1647114015.1,286047000.3,N
1647114035.9,286046999.3,N
1647114055.7,286047003.7,N
1647114075.5,286047001.4,N
1647114095.4,286047003.6,N
1647114115.2,286047010.0,Y
1647114135.1,286047008.8,P
1647114136.0,286047008.8,N
1647114155.8,286047012.5,N
1647114175.6,286047013.5,N
1647114195.5,286047015.5,Y
1647114215.3,286047003.6,P
1647114235.2,286047016.9,P
1647114255.9,286047023.6,P
1647114275.7,286047032.0,Y
1647114295.6,286047019.7,P
1647114315.4,286047025.0,P
1647114335.2,286047022.4,P
1647114355.1,286047016.4,Y
1647114356.0,286047016.4,P
1647114375.8,286046988.9,P
1647114395.7,286046994.2,N
1647114415.5,286046994.8,N
1647114435.3,286046994.8,N
1647114455.2,286046994.2,N
1647114475.0,286046989.0,N
1647114475.9,286046989.0,N
1647114495.7,286046989.6,N
1647114515.6,286046995.6,N
1647114535.4,286046991.5,N
1647114555.3,286046992.9,N
1647114575.1,286046987.0,N
1647114576.0,286046987.0,N
1647114595.8,286046989.9,N
1647114615.7,286046988.4,N
1647114635.5,286046992.1,N
1647114655.3,286046994.8,N
1647114675.2,286046990.8,N
1647114695.0,286046983.8,N
1647114695.9,286046983.8,N
1647114715.8,286046982.5,N
1647114735.6,286046979.2,N
1647114755.4,286046978.9,N
1647114775.3,286046984.4,N
1647114795.1,286046980.3,N
1647114815.8,286046978.3,N
1647114835.7,286046974.3,N
1647114855.5,286046971.0,Y
1647114875.4,286046980.7,P
1647114895.2,286046984.6,P
1647114915.0,286046990.2,N
1647114915.9,286046990.2,N
1647114935.8,286046990.4,N
1647114955.6,286046989.8,N
1647114975.5,286046988.3,Y
1647114995.3,286046998.4,P
1647115015.1,286047001.9,N
1647115035.9,286047000.6,N
1647115055.7,286047001.2,N
1647115075.5,286047006.0,N
1647115095.4,286047007.2,N
1647115115.2,286047002.3,N
1647115135.0,286047001.8,N
1647115135.9,286047001.8,N
1647115155.8,286047007.1,N
1647115175.6,286047005.5,N
1647115195.5,286047017.2,Y
